FIN802 ESSA-EFHK

Flight info

Callsign FIN802
Flight time 0h 42m
Altitude 33000
Route TOVRI N851 RIKUM DCT RIRIP Y364 LAKUT
Aircraft A320/M-SDE3FGHIRWY/LB1

Departure

Time 2026-04-25 15:16
Airport Stockholm-Arlanda Airport (ESSA)

Arrival

Time 2026-04-25 15:58
Airport Helsinki Vantaa Airport (EFHK)
Time Latitude Longitude Altitude Speed Heading
2026-04-25 14:43 59.64430 17.92692 110 ft 0 kts 52°
2026-04-25 15:03 59.64418 17.92661 138 ft 4 kts 53°
2026-04-25 15:03 59.64401 17.92618 138 ft 4 kts 53°
2026-04-25 15:04 59.64385 17.92577 138 ft 4 kts 47°
2026-04-25 15:04 59.64366 17.92539 138 ft 4 kts 41°
2026-04-25 15:04 59.64345 17.92506 138 ft 4 kts 36°
2026-04-25 15:04 59.64322 17.92480 138 ft 4 kts 13°
2026-04-25 15:05 59.64312 17.92476 138 ft 4 kts 358°
2026-04-25 15:05 59.64302 17.92477 138 ft 4 kts 340°
2026-04-25 15:05 59.64292 17.92486 138 ft 4 kts 313°
2026-04-25 15:06 59.64286 17.92500 138 ft 1 kts 296°
2026-04-25 15:09 59.64294 17.92469 138 ft 4 kts 296°
2026-04-25 15:09 59.64313 17.92392 138 ft 8 kts 296°
2026-04-25 15:09 59.64391 17.92111 138 ft 14 kts 298°
2026-04-25 15:10 59.64437 17.91961 138 ft 13 kts 325°
2026-04-25 15:10 59.64528 17.91974 138 ft 14 kts 11°
2026-04-25 15:10 59.64737 17.92051 138 ft 14 kts 11°
2026-04-25 15:11 59.64838 17.92088 138 ft 15 kts 10°
2026-04-25 15:11 59.64940 17.92125 138 ft 14 kts 11°
2026-04-25 15:11 59.65039 17.92161 138 ft 15 kts 10°
2026-04-25 15:12 59.65266 17.92242 138 ft 18 kts 11°
2026-04-25 15:12 59.65379 17.92282 138 ft 13 kts 10°
2026-04-25 15:12 59.65452 17.92394 138 ft 13 kts 45°
2026-04-25 15:12 59.65476 17.92439 138 ft 15 kts 44°
2026-04-25 15:13 59.65541 17.92708 138 ft 19 kts 75°
2026-04-25 15:13 59.65604 17.93189 138 ft 13 kts 76°
2026-04-25 15:13 59.65630 17.93309 138 ft 6 kts 50°
2026-04-25 15:14 59.65639 17.93327 138 ft 2 kts 44°
2026-04-25 15:14 59.65662 17.93371 138 ft 7 kts 44°
2026-04-25 15:14 59.65704 17.93452 138 ft 10 kts 45°
2026-04-25 15:14 59.65763 17.93572 138 ft 14 kts 46°
2026-04-25 15:15 59.65811 17.93670 138 ft 1 kts 47°
2026-04-25 15:15 59.65846 17.93742 138 ft 12 kts 50°
2026-04-25 15:15 59.65917 17.94173 140 ft 71 kts 73°
2026-04-25 15:15 59.66101 17.95605 141 ft 141 kts 72°
2026-04-25 15:16 59.66384 17.97634 657 ft 157 kts 70°
2026-04-25 15:16 59.66627 17.99738 1587 ft 155 kts 69°
2026-04-25 15:16 59.67144 18.03977 2767 ft 168 kts 70°
2026-04-25 15:17 59.67723 18.08954 3804 ft 203 kts 71°
2026-04-25 15:17 59.68045 18.11830 4417 ft 224 kts 71°
2026-04-25 15:17 59.68388 18.14962 5139 ft 241 kts 71°
2026-04-25 15:18 59.68743 18.18303 5939 ft 255 kts 72°
2026-04-25 15:18 59.69736 18.25213 7713 ft 264 kts 60°
2026-04-25 15:18 59.70531 18.28522 8662 ft 268 kts 57°
2026-04-25 15:19 59.71394 18.31838 9613 ft 274 kts 56°
2026-04-25 15:19 59.71983 18.34081 10094 ft 282 kts 57°
2026-04-25 15:19 59.73228 18.38896 10829 ft 305 kts 58°
2026-04-25 15:19 59.74198 18.42757 11437 ft 319 kts 58°
2026-04-25 15:20 59.75177 18.46770 12255 ft 326 kts 59°
2026-04-25 15:20 59.76156 18.50868 13089 ft 332 kts 59°
2026-04-25 15:20 59.77145 18.55045 13851 ft 337 kts 59°
2026-04-25 15:20 59.78136 18.59243 14570 ft 342 kts 59°
2026-04-25 15:21 59.79151 18.63544 15307 ft 347 kts 60°
2026-04-25 15:21 59.80181 18.67922 16046 ft 352 kts 60°
2026-04-25 15:21 59.81222 18.72363 16777 ft 357 kts 60°
2026-04-25 15:21 59.82276 18.76855 17490 ft 361 kts 60°
2026-04-25 15:22 59.83346 18.81418 18169 ft 366 kts 60°
2026-04-25 15:22 59.84424 18.86031 18804 ft 370 kts 60°
2026-04-25 15:22 59.85516 18.90687 19439 ft 373 kts 60°
2026-04-25 15:22 59.86619 18.95391 20086 ft 377 kts 61°
2026-04-25 15:23 59.87731 19.00150 20718 ft 381 kts 61°
2026-04-25 15:23 59.88846 19.04956 21354 ft 385 kts 61°
2026-04-25 15:23 59.89974 19.09823 21961 ft 389 kts 62°
2026-04-25 15:23 59.91112 19.14750 22560 ft 394 kts 62°
2026-04-25 15:24 59.92263 19.19737 23156 ft 398 kts 62°
2026-04-25 15:24 59.93425 19.24788 23628 ft 403 kts 62°
2026-04-25 15:24 59.94600 19.29900 24081 ft 408 kts 62°
2026-04-25 15:24 59.95385 19.33323 24375 ft 411 kts 62°
2026-04-25 15:25 59.96937 19.40359 24960 ft 419 kts 68°
2026-04-25 15:25 59.97741 19.45990 25394 ft 425 kts 74°
2026-04-25 15:25 59.98441 19.51746 25808 ft 429 kts 74°
2026-04-25 15:25 59.99145 19.57569 26219 ft 434 kts 74°
2026-04-25 15:26 59.99855 19.63459 26628 ft 438 kts 75°
2026-04-25 15:26 60.00570 19.69399 27035 ft 442 kts 75°
2026-04-25 15:26 60.01292 19.75394 27426 ft 446 kts 75°
2026-04-25 15:26 60.02019 19.81446 27822 ft 450 kts 75°
2026-04-25 15:27 60.02747 19.87558 28218 ft 454 kts 75°
2026-04-25 15:27 60.03478 19.93720 28595 ft 457 kts 75°
2026-04-25 15:27 60.04958 20.06212 29332 ft 465 kts 75°
2026-04-25 15:28 60.05701 20.12530 29693 ft 469 kts 75°
2026-04-25 15:28 60.06446 20.18907 29985 ft 472 kts 75°
2026-04-25 15:28 60.07191 20.25329 30275 ft 475 kts 75°
2026-04-25 15:28 60.07936 20.31790 30565 ft 477 kts 75°
2026-04-25 15:29 60.08685 20.38292 30851 ft 480 kts 75°
2026-04-25 15:29 60.09424 20.44739 31126 ft 482 kts 75°
2026-04-25 15:29 60.10184 20.51387 31424 ft 484 kts 75°
2026-04-25 15:29 60.10930 20.57961 31821 ft 483 kts 75°
2026-04-25 15:30 60.11668 20.64521 32228 ft 482 kts 75°
2026-04-25 15:30 60.12402 20.71081 32508 ft 483 kts 75°
2026-04-25 15:30 60.13127 20.77609 32563 ft 473 kts 75°
2026-04-25 15:30 60.13541 20.81348 32560 ft 462 kts 75°
2026-04-25 15:31 60.14188 20.87221 32557 ft 449 kts 75°
2026-04-25 15:31 60.15522 20.99378 32551 ft 449 kts 75°
2026-04-25 15:32 60.16866 21.11631 32539 ft 449 kts 75°
2026-04-25 15:32 60.18201 21.23883 32533 ft 449 kts 75°
2026-04-25 15:33 60.20161 21.42285 32526 ft 449 kts 76°
2026-04-25 15:33 60.21460 21.54563 32520 ft 448 kts 76°
2026-04-25 15:34 60.22752 21.66820 32509 ft 448 kts 76°
2026-04-25 15:34 60.23816 21.77026 32504 ft 448 kts 76°
2026-04-25 15:35 60.25907 21.97388 32032 ft 444 kts 77°
2026-04-25 15:35 60.26521 22.03459 31540 ft 441 kts 77°
2026-04-25 15:36 60.27734 22.15484 30615 ft 435 kts 77°
2026-04-25 15:36 60.28331 22.21430 30171 ft 432 kts 77°
2026-04-25 15:36 60.28919 22.27342 29739 ft 429 kts 77°
2026-04-25 15:37 60.29501 22.33212 29266 ft 426 kts 78°
2026-04-25 15:37 60.30076 22.39039 28772 ft 422 kts 78°
2026-04-25 15:37 60.30642 22.44825 28299 ft 418 kts 78°
2026-04-25 15:37 60.31199 22.50550 27846 ft 414 kts 78°
2026-04-25 15:38 60.31748 22.56235 27394 ft 411 kts 78°
2026-04-25 15:38 60.32292 22.61860 26958 ft 407 kts 78°
2026-04-25 15:38 60.32833 22.67442 26514 ft 403 kts 78°
2026-04-25 15:38 60.33370 22.72980 26072 ft 400 kts 79°
2026-04-25 15:39 60.33897 22.78461 25636 ft 396 kts 79°
2026-04-25 15:39 60.34417 22.83904 25208 ft 393 kts 79°
2026-04-25 15:39 60.34931 22.89300 24777 ft 390 kts 79°
2026-04-25 15:39 60.35437 22.94663 24345 ft 387 kts 79°
2026-04-25 15:40 60.35935 22.99982 23928 ft 383 kts 80°
2026-04-25 15:40 60.36094 23.01693 23799 ft 382 kts 80°
2026-04-25 15:40 60.36906 23.10478 23103 ft 377 kts 81°
2026-04-25 15:40 60.37382 23.15669 22639 ft 374 kts 81°
2026-04-25 15:41 60.37853 23.20820 22178 ft 371 kts 81°
2026-04-25 15:41 60.38320 23.25929 21725 ft 368 kts 81°
2026-04-25 15:41 60.38776 23.30926 21283 ft 365 kts 81°
2026-04-25 15:41 60.39233 23.35958 20868 ft 362 kts 81°
2026-04-25 15:42 60.39685 23.40945 20442 ft 359 kts 81°
2026-04-25 15:42 60.40131 23.45897 20030 ft 357 kts 81°
2026-04-25 15:42 60.40573 23.50814 19633 ft 354 kts 81°
2026-04-25 15:42 60.41007 23.55702 19223 ft 352 kts 81°
2026-04-25 15:43 60.41435 23.60559 18838 ft 349 kts 81°
2026-04-25 15:43 60.41859 23.65381 18463 ft 347 kts 81°
2026-04-25 15:43 60.42278 23.70172 18090 ft 344 kts 81°
2026-04-25 15:43 60.42692 23.74926 17717 ft 342 kts 81°
2026-04-25 15:44 60.43103 23.79665 17308 ft 340 kts 81°
2026-04-25 15:44 60.43511 23.84365 16902 ft 338 kts 81°
2026-04-25 15:44 60.43909 23.89032 16508 ft 335 kts 82°
2026-04-25 15:44 60.44233 23.93688 16129 ft 333 kts 84°
2026-04-25 15:45 60.44414 23.96758 15882 ft 331 kts 85°
2026-04-25 15:45 60.44742 24.02932 15386 ft 328 kts 85°
2026-04-25 15:45 60.44980 24.07518 15037 ft 326 kts 85°
2026-04-25 15:45 60.45062 24.09057 14911 ft 325 kts 85°
2026-04-25 15:46 60.45470 24.16595 14335 ft 322 kts 85°
2026-04-25 15:46 60.45723 24.21094 13994 ft 320 kts 85°
2026-04-25 15:46 60.45973 24.25566 13654 ft 318 kts 85°
2026-04-25 15:46 60.46183 24.30020 13322 ft 316 kts 86°
2026-04-25 15:47 60.46361 24.34451 12978 ft 314 kts 87°
2026-04-25 15:47 60.46524 24.38847 12440 ft 311 kts 87°
2026-04-25 15:47 60.46683 24.43217 11959 ft 310 kts 87°
2026-04-25 15:47 60.46840 24.47504 11507 ft 308 kts 87°
2026-04-25 15:48 60.47000 24.51817 11050 ft 306 kts 86°
2026-04-25 15:48 60.47161 24.56106 10598 ft 304 kts 86°
2026-04-25 15:48 60.47296 24.60361 10147 ft 302 kts 91°
2026-04-25 15:48 60.47083 24.64567 9704 ft 298 kts 102°
2026-04-25 15:49 60.46713 24.68679 9262 ft 296 kts 102°
2026-04-25 15:49 60.46347 24.72774 8779 ft 294 kts 101°
2026-04-25 15:49 60.45983 24.76833 8268 ft 292 kts 101°
2026-04-25 15:49 60.45621 24.80873 7764 ft 291 kts 101°
2026-04-25 15:50 60.45259 24.84898 7264 ft 290 kts 101°
2026-04-25 15:50 60.44962 24.88909 6840 ft 285 kts 92°
2026-04-25 15:50 60.45127 24.92790 6707 ft 267 kts 76°
2026-04-25 15:50 60.45719 24.96184 6450 ft 254 kts 60°
2026-04-25 15:51 60.46685 24.99115 6046 ft 249 kts 45°
2026-04-25 15:51 60.47080 24.99985 5942 ft 246 kts 43°
2026-04-25 15:51 60.49006 25.04217 5307 ft 244 kts 44°
2026-04-25 15:51 60.50145 25.06752 4984 ft 242 kts 44°
2026-04-25 15:52 60.51269 25.09291 4630 ft 242 kts 48°
2026-04-25 15:52 60.51978 25.12343 4429 ft 239 kts 78°
2026-04-25 15:52 60.51881 25.15630 4303 ft 231 kts 109°
2026-04-25 15:52 60.51077 25.18315 4164 ft 219 kts 138°
2026-04-25 15:53 60.49978 25.20348 4030 ft 210 kts 140°
2026-04-25 15:53 60.48891 25.22265 3931 ft 205 kts 149°
2026-04-25 15:53 60.47625 25.23503 3900 ft 201 kts 170°
2026-04-25 15:53 60.46264 25.23808 3800 ft 195 kts 189°
2026-04-25 15:54 60.44970 25.23213 3637 ft 188 kts 209°
2026-04-25 15:54 60.43881 25.21842 3426 ft 183 kts 227°
2026-04-25 15:54 60.43016 25.19983 3198 ft 181 kts 233°
2026-04-25 15:54 60.42170 25.18096 2949 ft 181 kts 232°
2026-04-25 15:55 60.41335 25.16238 2720 ft 176 kts 233°
2026-04-25 15:55 60.40523 25.14433 2476 ft 171 kts 233°
2026-04-25 15:55 60.39748 25.12713 2229 ft 159 kts 233°
2026-04-25 15:55 60.39037 25.11137 2035 ft 143 kts 233°
2026-04-25 15:56 60.38398 25.09721 1837 ft 130 kts 233°
2026-04-25 15:56 60.37809 25.08412 1665 ft 127 kts 234°
2026-04-25 15:56 60.37214 25.07089 1486 ft 127 kts 235°
2026-04-25 15:56 60.36620 25.05772 1314 ft 126 kts 234°
2026-04-25 15:57 60.36029 25.04460 1106 ft 126 kts 234°
2026-04-25 15:57 60.35436 25.03144 915 ft 126 kts 234°
2026-04-25 15:57 60.34847 25.01839 718 ft 126 kts 234°
2026-04-25 15:57 60.34255 25.00529 541 ft 126 kts 234°
2026-04-25 15:58 60.33664 24.99223 376 ft 125 kts 234°
2026-04-25 15:58 60.33081 24.97930 214 ft 125 kts 234°
2026-04-25 15:58 60.32549 24.96724 173 ft 85 kts 225°
2026-04-25 15:58 60.32309 24.96226 177 ft 34 kts 227°
2026-04-25 15:59 60.32153 24.95890 177 ft 31 kts 226°
2026-04-25 15:59 60.32001 24.95688 173 ft 18 kts 199°
2026-04-25 15:59 60.31893 24.95612 171 ft 14 kts 192°
2026-04-25 15:59 60.31834 24.95604 170 ft 5 kts 162°
2026-04-25 16:00 60.31813 24.95648 170 ft 5 kts 113°
2026-04-25 16:00 60.31812 24.95673 170 ft 6 kts 88°
2026-04-25 16:00 60.31863 24.95815 169 ft 8 kts 47°
2026-04-25 16:00 60.31898 24.95889 170 ft 6 kts 47°
2026-04-25 16:01 60.31935 24.95974 170 ft 10 kts 47°
2026-04-25 16:01 60.31983 24.96078 169 ft 10 kts 47°
2026-04-25 16:01 60.32016 24.96149 169 ft 10 kts 49°
2026-04-25 16:01 60.32064 24.96256 168 ft 10 kts 47°
2026-04-25 16:02 60.32115 24.96372 168 ft 11 kts 48°
2026-04-25 16:02 60.32165 24.96481 168 ft 10 kts 47°
2026-04-25 16:02 60.32212 24.96582 168 ft 9 kts 46°
2026-04-25 16:02 60.32254 24.96682 167 ft 10 kts 64°
2026-04-25 16:03 60.32217 24.96770 166 ft 9 kts 154°
2026-04-25 16:03 60.32165 24.96827 166 ft 8 kts 150°
2026-04-25 16:03 60.32121 24.96878 167 ft 7 kts 149°
2026-04-25 16:03 60.32082 24.96925 167 ft 6 kts 149°
2026-04-25 16:04 60.32046 24.96965 167 ft 6 kts 151°
2026-04-25 16:04 60.32014 24.97000 167 ft 5 kts 152°
2026-04-25 16:04 60.31986 24.97030 167 ft 4 kts 153°
2026-04-25 16:04 60.31969 24.97016 167 ft 2 kts 225°
2026-04-25 16:05 60.31963 24.96993 167 ft 2 kts 244°
2026-04-25 16:05 60.31953 24.96952 167 ft 3 kts 243°
2026-04-25 16:05 60.31947 24.96929 167 ft 0 kts 242°
2026-04-25 16:06 60.31947 24.96928 167 ft 1 kts 241°
2026-04-25 16:06 60.31945 24.96923 167 ft 0 kts 241°
2026-04-25 16:07 60.31945 24.96922 167 ft 0 kts 241°